Voltar ao catálogo

STARLINK-35626

AtivoComunicaçõesVLEO
NORAD 66233·PAYLOAD·🇺🇸 United States

Lançado Oct 28, 2025 de Vandenberg Space Force Base

Loading…

Próximas Passagens (próximas 24 horas)

TLE

AtualizadoSource: CelesTrak SupGP

Época: Sep 14, 2026, 23:12 UTC

1 66233C 25244AD  26257.96715278  .00035457  00000+0  10479-2 0  2577
2 66233  53.1587  69.4523 0001160  78.4803  34.2249 15.34361856    15

Acompanhe STARLINK-35626 em tempo real com AllMySat

Download on the App Store